Westfield, MA

11:17 AM EDT on July 28, 2017 (GMT -0400)
Barnes Municipal

Weather History for KBAF - February, 2013

Change the Weather History Date:

Saturday, February 2, 2013

  Actual Average Record
Temperature  
Mean Temperature 24 °F -  
Max Temperature 30 °F 32 °F 48 °F (2016)
Min Temperature 17 °F 15 °F 1 °F (2004)
Degree Days  
Heating Degree Days 42    
Moisture  
Dew Point 6 °F    
Average Humidity 48    
Maximum Humidity 68    
Minimum Humidity 30    
Precipitation  
Precipitation 0.00 in - - ()
Sea Level Pressure  
Sea Level Pressure 30.15 in    
Wind  
Wind Speed 11 mph (WSW)    
Max Wind Speed 17 mph    
Max Gust Speed 29 mph    
Visibility 10 miles    
Events Snow    
Averages and records for this station are not official NWS values.
T = Trace of Precipitation, MM = Missing Value Source: NWS Daily Summary

Daily Weather History Graph

Daily Weather History Graph

Search for Another Location

Airport or City:

Trip Planner

Search our weather history database for the weather conditions in past years. The results will help you decide how hot, cold, wet, or windy it might be!

Date:

Astronomy

Feb. 02, 2013 Rise Set
Actual Time 7:02 AM EST 5:07 PM EST
Civil Twilight 6:33 AM EST 5:36 PM EST
Nautical Twilight 5:59 AM EST 6:10 PM EST
Astronomical Twilight 5:26 AM EST 6:42 PM EST
Moon No Moon Rise 10:03 AM EST (2/2)
Length of Visible Light 11h 03m
Length of Day
10h 04m
Waning Gibbous, 60% of the Moon is Illuminated
Feb 2
Waning Gibbous
Feb 3
Last Quarter
Feb 10
New
Feb 17
First Quarter
Feb 25
Full

Hourly Weather History & Observations

Time (EST) Temp. Windchill Dew Point Humidity Pressure Visibility Wind Dir Wind Speed Gust Speed Precip Events Conditions
12:53 AM 21.0 °F 9.3 °F 10.0 °F 63% 30.15 in 7.0 mi NW 11.5 mph 17.3 mph 0.00 in Snow Light Snow
1:04 AM 21.2 °F 8.9 °F 8.6 °F 58% 30.13 in 10.0 mi NW 12.7 mph 23.0 mph 0.00 in   Scattered Clouds
1:53 AM 21.0 °F 6.6 °F 6.1 °F 53% 30.18 in 10.0 mi WNW 17.3 mph 28.8 mph 0.00 in   Partly Cloudy
2:53 AM 19.9 °F 6.2 °F 3.9 °F 50% 30.19 in 10.0 mi WNW 15.0 mph 28.8 mph N/A   Clear
3:53 AM 19.9 °F 8.6 °F 1.9 °F 46% 30.20 in 10.0 mi WNW 10.4 mph 19.6 mph N/A   Clear
4:53 AM 19.0 °F 8.2 °F 1.9 °F 47% 30.22 in 10.0 mi NW 9.2 mph - N/A   Clear
5:53 AM 17.1 °F 8.7 °F 1.9 °F 52% 30.23 in 10.0 mi West 5.8 mph - N/A   Clear
6:53 AM 17.1 °F 8.7 °F 3.0 °F 54% 30.25 in 10.0 mi West 5.8 mph - N/A   Clear
7:53 AM 18.0 °F 9.8 °F 5.0 °F 57% 30.26 in 10.0 mi SW 5.8 mph - N/A   Clear
8:53 AM 19.9 °F 11.1 °F 5.0 °F 52% 30.26 in 10.0 mi SSW 6.9 mph - N/A   Scattered Clouds
9:53 AM 21.9 °F 15.7 °F 6.1 °F 51% 30.25 in 10.0 mi SSW 4.6 mph - N/A   Clear
10:53 AM 26.1 °F 17.6 °F 9.0 °F 49% 30.23 in 10.0 mi SSE 8.1 mph - N/A   Clear
11:53 AM 28.9 °F 19.2 °F 7.0 °F 40% 30.18 in 10.0 mi SSW 11.5 mph - N/A   Partly Cloudy
12:53 PM 30.0 °F 19.5 °F 3.0 °F 32% 30.13 in 10.0 mi SW 13.8 mph 23.0 mph N/A   Clear
1:53 PM 30.0 °F 20.5 °F 3.9 °F 33% 30.10 in 10.0 mi South 11.5 mph 19.6 mph N/A   Scattered Clouds
2:53 PM 30.0 °F 19.5 °F 3.0 °F 32% 30.08 in 10.0 mi SSW 13.8 mph - N/A   Overcast
3:53 PM 30.0 °F 18.3 °F 1.9 °F 30% 30.06 in 10.0 mi SSW 17.3 mph 20.7 mph N/A   Mostly Cloudy
4:53 PM 28.9 °F 18.2 °F 3.0 °F 33% 30.06 in 10.0 mi SSW 13.8 mph - N/A   Clear
5:53 PM 28.0 °F 19.3 °F 6.1 °F 39% 30.06 in 10.0 mi SSW 9.2 mph - N/A   Mostly Cloudy
6:53 PM 27.0 °F 16.1 °F 6.1 °F 41% 30.07 in 10.0 mi SW 12.7 mph - N/A   Overcast
7:53 PM 26.1 °F 16.8 °F 7.0 °F 44% 30.07 in 10.0 mi SW 9.2 mph - N/A   Overcast
8:53 PM 26.1 °F 16.8 °F 10.0 °F 51% 30.07 in 10.0 mi West 9.2 mph - N/A   Overcast
9:53 PM 24.1 °F 15.2 °F 12.0 °F 60% 30.08 in 10.0 mi WSW 8.1 mph - N/A   Overcast
10:53 PM 24.1 °F 14.4 °F 12.9 °F 62% 30.07 in 10.0 mi SW 9.2 mph - N/A   Overcast
11:53 PM 23.0 °F 15.8 °F 14.0 °F 68% 30.07 in 10.0 mi SW 5.8 mph - N/A   Overcast